ts,date,time,wdb,wda,wdv,wsl,wsa,wsh,createts
"2016-02-10 23:50:00","2016-02-10","23:50:00","51","80","133","0.09","1.3","2.22","2016-02-10 23:50:00",
"2016-02-10 23:40:00","2016-02-10","23:40:00","352","134","259","0.1","1.37","2.28","2016-02-10 23:40:00",
"2016-02-10 23:30:00","2016-02-10","23:30:00","98","159","209","0.65","2.09","3.57","2016-02-10 23:30:00",
"2016-02-10 23:20:00","2016-02-10","23:20:00","34","89","260","0.04","1.46","2.4","2016-02-10 23:20:00",
"2016-02-10 23:10:00","2016-02-10","23:10:00","9","70","105","1.09","1.78","2.5","2016-02-10 23:10:00",
"2016-02-10 23:00:00","2016-02-10","23:00:00","58","77","111","1.04","1.65","2.34","2016-02-10 23:00:00",
"2016-02-10 22:50:00","2016-02-10","22:50:00","95","142","180","0.71","1.3","1.8","2016-02-10 22:50:00",
"2016-02-10 22:40:00","2016-02-10","22:40:00","77","131","191","0.81","1.57","2.34","2016-02-10 22:40:00",
"2016-02-10 22:30:00","2016-02-10","22:30:00","72","85","102","1.34","1.89","2.49","2016-02-10 22:30:00",
"2016-02-10 22:20:00","2016-02-10","22:20:00","72","94","161","0.57","1.53","2.32","2016-02-10 22:20:00",
"2016-02-10 22:10:00","2016-02-10","22:10:00","86","142","196","0.32","0.83","1.32","2016-02-10 22:13:43",
"2016-02-10 22:00:00","2016-02-10","22:00:00","75","107","131","0.6","0.98","1.76","2016-02-10 22:00:00",
"2016-02-10 21:50:00","2016-02-10","21:50:00","73","92","117","0.57","1.18","1.86","2016-02-10 21:50:00",
"2016-02-10 21:40:00","2016-02-10","21:40:00","81","133","182","0.22","1.03","1.74","2016-02-10 21:40:00",
"2016-02-10 21:30:00","2016-02-10","21:30:00","98","138","171","0.57","1.13","1.61","2016-02-10 21:30:00",
"2016-02-10 21:20:00","2016-02-10","21:20:00","82","105","140","0.52","1.1","1.71","2016-02-10 21:20:00",
"2016-02-10 21:10:00","2016-02-10","21:10:00","297","110","174","0.24","1.27","2.04","2016-02-10 21:10:00",
"2016-02-10 21:00:00","2016-02-10","21:00:00","294","333","5","0.6","1.63","3.05","2016-02-10 21:00:00",
"2016-02-10 20:50:00","2016-02-10","20:50:00","310","341","2","1.33","2.23","3.39","2016-02-10 20:50:00",
"2016-02-10 20:40:00","2016-02-10","20:40:00","282","311","354","1.61","3.03","3.93","2016-02-10 20:40:00",
"2016-02-10 20:30:00","2016-02-10","20:30:00","274","292","327","0.88","2.05","3.3","2016-02-10 20:30:00",
"2016-02-10 20:20:00","2016-02-10","20:20:00","140","318","126","0.02","0.58","1.47","2016-02-10 20:20:00",
"2016-02-10 20:10:00","2016-02-10","20:10:00","59","208","295","0.08","0.71","1.25","2016-02-10 20:10:00",
"2016-02-10 20:00:00","2016-02-10","20:00:00","290","23","111","0.41","0.95","1.48","2016-02-10 20:00:00",
"2016-02-10 19:50:00","2016-02-10","19:50:00","259","297","344","0.63","1.3","1.9","2016-02-10 19:50:00",
"2016-02-10 19:40:00","2016-02-10","19:40:00","248","279","340","0.63","1.4","2.08","2016-02-10 19:40:00",
"2016-02-10 19:30:00","2016-02-10","19:30:00","244","280","329","0.27","1.07","1.92","2016-02-10 19:30:00",
"2016-02-10 19:20:00","2016-02-10","19:20:00","193","255","354","0.03","0.58","1.18","2016-02-10 19:20:00",
"2016-02-10 19:10:00","2016-02-10","19:10:00","138","185","226","0.41","1.11","1.79","2016-02-10 19:10:00",
"2016-02-10 19:00:00","2016-02-10","19:00:00","135","314","133","0.03","0.96","1.86","2016-02-10 19:00:00",
"2016-02-10 18:50:00","2016-02-10","18:50:00","284","334","5","0.93","1.64","2.87","2016-02-10 18:50:00",
"2016-02-10 18:40:00","2016-02-10","18:40:00","234","316","349","0.59","1.51","2.82","2016-02-10 18:40:00",
"2016-02-10 18:30:00","2016-02-10","18:30:00","252","294","329","0.47","1","1.66","2016-02-10 18:30:00",
"2016-02-10 18:20:00","2016-02-10","18:20:00","239","288","349","0.62","1.38","1.92","2016-02-10 18:20:00",
"2016-02-10 18:10:00","2016-02-10","18:10:00","222","289","339","0.35","1.12","1.85","2016-02-10 18:10:00",
"2016-02-10 18:00:00","2016-02-10","18:00:00","290","319","355","1.02","1.9","2.68","2016-02-10 18:00:00",
"2016-02-10 17:50:00","2016-02-10","17:50:00","276","313","343","1.08","2.16","2.71","2016-02-10 17:50:00",
"2016-02-10 17:40:00","2016-02-10","17:40:00","275","311","335","1.42","2.1","2.9","2016-02-10 17:40:00",
"2016-02-10 17:30:00","2016-02-10","17:30:00","298","324","356","1.5","2.09","2.91","2016-02-10 17:30:00",
"2016-02-10 17:20:00","2016-02-10","17:20:00","293","323","343","2.07","3.06","4.09","2016-02-10 17:20:01",
"2016-02-10 17:10:00","2016-02-10","17:10:00","292","328","357","1.94","3.49","4.69","2016-02-10 17:10:01",
"2016-02-10 17:00:00","2016-02-10","17:00:00","285","327","359","1.68","2.73","4.1","2016-02-10 17:00:01",
"2016-02-10 16:50:00","2016-02-10","16:50:00","285","327","30","1.13","3.12","4.55","2016-02-10 16:50:01",
"2016-02-10 16:40:00","2016-02-10","16:40:00","296","328","358","1.32","4.03","5.52","2016-02-10 16:40:01",
"2016-02-10 16:30:00","2016-02-10","16:30:00","298","331","10","2.1","3.8","6.25","2016-02-10 16:30:01",
"2016-02-10 16:20:00","2016-02-10","16:20:00","302","347","45","1.33","2.65","3.85","2016-02-10 16:20:01",
"2016-02-10 16:10:00","2016-02-10","16:10:00","297","351","37","1.04","2.81","4.51","2016-02-10 16:10:01",
"2016-02-10 16:00:00","2016-02-10","16:00:00","321","16","58","1.23","3.19","5.45","2016-02-10 16:00:00",
"2016-02-10 15:50:00","2016-02-10","15:50:00","350","22","74","1.61","3.55","5.81","2016-02-10 15:50:01",
"2016-02-10 15:40:00","2016-02-10","15:40:00","325","33","86","1.44","3.06","5.61","2016-02-10 15:40:01",
"2016-02-10 15:30:00","2016-02-10","15:30:00","329","36","87","0.91","3.53","6.14","2016-02-10 15:30:01",
"2016-02-10 15:20:00","2016-02-10","15:20:00","346","32","83","1.15","3.3","6.75","2016-02-10 15:20:02",
"2016-02-10 15:10:00","2016-02-10","15:10:00","312","8","52","1.61","3.47","5.93","2016-02-10 15:10:01",
"2016-02-10 15:00:00","2016-02-10","15:00:00","282","326","41","2.14","4.44","6.85","2016-02-10 15:00:01",
"2016-02-10 14:50:00","2016-02-10","14:50:00","274","303","333","2.46","4.91","6.79","2016-02-10 14:50:01",
"2016-02-10 14:40:00","2016-02-10","14:40:00","269","306","330","2.94","5.45","7.72","2016-02-10 14:40:00",
"2016-02-10 14:30:00","2016-02-10","14:30:00","273","303","322","3.69","7.18","10.26","2016-02-10 14:30:01",
"2016-02-10 14:20:00","2016-02-10","14:20:00","285","316","344","3.13","7.04","9.41","2016-02-10 14:20:01",
"2016-02-10 14:10:00","2016-02-10","14:10:00","275","307","337","2.68","5.62","8.71","2016-02-10 14:10:01",
"2016-02-10 14:00:00","2016-02-10","14:00:00","275","303","329","3.69","6.06","9.61","2016-02-10 14:00:01",
"2016-02-10 13:50:00","2016-02-10","13:50:00","275","317","349","2.3","7.88","11.57","2016-02-10 13:50:01",
"2016-02-10 13:40:00","2016-02-10","13:40:00","277","311","343","4.12","7.57","10.12","2016-02-10 13:40:00",
"2016-02-10 13:30:00","2016-02-10","13:30:00","263","298","337","4.02","6.71","10.39","2016-02-10 13:30:00",
"2016-02-10 13:20:00","2016-02-10","13:20:00","267","290","313","4.13","6.93","9.24","2016-02-10 13:20:01",
"2016-02-10 13:10:00","2016-02-10","13:10:00","250","286","309","3.9","6.24","9.41","2016-02-10 13:10:00",
"2016-02-10 13:00:00","2016-02-10","13:00:00","264","293","322","3.15","6.76","10.2","2016-02-10 13:00:00",
"2016-02-10 12:50:00","2016-02-10","12:50:00","278","305","328","3.73","6.76","9.62","2016-02-10 12:50:01",
"2016-02-10 12:40:00","2016-02-10","12:40:00","266","306","337","2.76","6.1","8.44","2016-02-10 12:40:01",
"2016-02-10 12:30:00","2016-02-10","12:30:00","277","310","331","2.39","5.39","6.9","2016-02-10 12:30:00",
"2016-02-10 12:20:00","2016-02-10","12:20:00","285","320","359","2.4","6.17","9.02","2016-02-10 12:20:01",
"2016-02-10 12:10:00","2016-02-10","12:10:00","297","339","58","0.71","5.66","11.04","2016-02-10 12:10:00",
"2016-02-10 12:00:00","2016-02-10","12:00:00","292","350","60","0.95","3.79","6.88","2016-02-10 12:00:00",
"2016-02-10 11:50:00","2016-02-10","11:50:00","291","334","67","1.42","2.98","5.03","2016-02-10 11:50:01",
"2016-02-10 11:40:00","2016-02-10","11:40:00","258","311","26","0.75","3.02","5.31","2016-02-10 11:40:00",
"2016-02-10 11:30:00","2016-02-10","11:30:00","280","331","26","0.55","2.62","4.49","2016-02-10 11:30:00",
"2016-02-10 11:20:00","2016-02-10","11:20:00","269","316","26","2.3","5.44","8.71","2016-02-10 11:20:00",
"2016-02-10 11:10:00","2016-02-10","11:10:00","275","303","323","2.43","4.68","7.9","2016-02-10 11:10:00",
"2016-02-10 11:00:00","2016-02-10","11:00:00","279","299","321","3.02","4.31","5.95","2016-02-10 11:00:00",
"2016-02-10 10:50:00","2016-02-10","10:50:00","272","294","313","2.6","4.67","6.28","2016-02-10 10:50:00",
"2016-02-10 10:40:00","2016-02-10","10:40:00","274","300","333","2.79","4.42","6.13","2016-02-10 10:40:01",
"2016-02-10 10:30:00","2016-02-10","10:30:00","274","305","329","3.19","5.23","7.42","2016-02-10 10:30:00",
"2016-02-10 10:20:00","2016-02-10","10:20:00","282","311","337","3.72","6.03","9.16","2016-02-10 10:20:00",
"2016-02-10 10:10:00","2016-02-10","10:10:00","279","306","323","2.98","6.61","9.43","2016-02-10 10:10:00",
"2016-02-10 10:00:00","2016-02-10","10:00:00","278","305","326","3.61","6.82","9.47","2016-02-10 10:00:00",
"2016-02-10 09:50:00","2016-02-10","09:50:00","279","304","330","4.98","8.46","12.04","2016-02-10 09:50:00",
"2016-02-10 09:40:00","2016-02-10","09:40:00","279","305","328","4.48","7.41","9.86","2016-02-10 09:40:00",
"2016-02-10 09:30:00","2016-02-10","09:30:00","289","313","335","4.43","6.49","10.35","2016-02-10 09:30:00",
"2016-02-10 09:20:00","2016-02-10","09:20:00","285","312","327","3.63","6.2","8.14","2016-02-10 09:20:00",
"2016-02-10 09:10:00","2016-02-10","09:10:00","290","307","330","5.39","7.45","10.19","2016-02-10 09:10:00",
"2016-02-10 09:00:00","2016-02-10","09:00:00","288","306","319","5.46","8.32","12.07","2016-02-10 09:00:00",
"2016-02-10 08:50:00","2016-02-10","08:50:00","265","310","329","4.46","8.22","13.36","2016-02-10 08:50:00",
"2016-02-10 08:40:00","2016-02-10","08:40:00","281","312","344","3.96","6.17","9.29","2016-02-10 08:40:00",
"2016-02-10 08:30:00","2016-02-10","08:30:00","277","301","326","4.24","6.59","10.08","2016-02-10 08:30:00",
"2016-02-10 08:20:00","2016-02-10","08:20:00","294","313","342","6.49","9.72","13.16","2016-02-10 08:20:00",
"2016-02-10 08:10:00","2016-02-10","08:10:00","303","329","359","5.96","9.35","15.08","2016-02-10 08:10:00",
"2016-02-10 08:00:00","2016-02-10","08:00:00","293","331","358","5.84","8.73","12.28","2016-02-10 08:00:00",
"2016-02-10 07:50:00","2016-02-10","07:50:00","300","325","355","5.79","10","13.63","2016-02-10 07:50:00",
"2016-02-10 07:40:00","2016-02-10","07:40:00","286","311","331","1.57","9.31","13.61","2016-02-10 07:40:00",
"2016-02-10 07:30:00","2016-02-10","07:30:00","285","323","0","4.6","8.27","11.69","2016-02-10 07:30:00",
"2016-02-10 07:20:00","2016-02-10","07:20:00","293","312","344","5.39","8.5","11.76","2016-02-10 07:20:00",
"2016-02-10 07:10:00","2016-02-10","07:10:00","288","305","328","6.5","9.91","13.3","2016-02-10 07:10:00",
"2016-02-10 07:00:00","2016-02-10","07:00:00","281","300","325","6.74","11.23","15.3","2016-02-10 07:00:00",
"2016-02-10 06:50:00","2016-02-10","06:50:00","273","302","325","5.83","10.82","15.76","2016-02-10 06:50:00",
"2016-02-10 06:40:00","2016-02-10","06:40:00","283","299","325","5.06","7.11","9.68","2016-02-10 06:40:00",
"2016-02-10 06:30:00","2016-02-10","06:30:00","283","305","325","4.26","7.15","12.07","2016-02-10 06:30:00",
"2016-02-10 06:20:00","2016-02-10","06:20:00","279","303","327","5.22","7.58","9.98","2016-02-10 06:20:00",
"2016-02-10 06:10:00","2016-02-10","06:10:00","281","299","315","5.32","7.72","10.4","2016-02-10 06:10:00",
"2016-02-10 06:00:00","2016-02-10","06:00:00","277","302","328","5.33","8.67","12.5","2016-02-10 06:00:00",
"2016-02-10 05:50:00","2016-02-10","05:50:00","283","306","329","5.13","7.91","11.19","2016-02-10 05:50:00",
"2016-02-10 05:40:00","2016-02-10","05:40:00","277","296","317","5.31","8.37","11.02","2016-02-10 05:40:00",
"2016-02-10 05:30:00","2016-02-10","05:30:00","281","294","308","5.17","8.69","11.71","2016-02-10 05:30:00",
"2016-02-10 05:20:00","2016-02-10","05:20:00","277","298","318","5.2","8.05","11.45","2016-02-10 05:20:00",
"2016-02-10 05:10:00","2016-02-10","05:10:00","281","298","316","6.26","8.54","11.4","2016-02-10 05:10:00",
"2016-02-10 05:00:00","2016-02-10","05:00:00","279","295","314","6.55","9.13","12.34","2016-02-10 05:00:00",
"2016-02-10 04:50:00","2016-02-10","04:50:00","273","293","318","6.28","8.67","11.29","2016-02-10 04:50:00",
"2016-02-10 04:40:00","2016-02-10","04:40:00","277","293","309","5.42","8.05","10.11","2016-02-10 04:40:00",
"2016-02-10 04:30:00","2016-02-10","04:30:00","277","291","313","5.98","8.61","11.34","2016-02-10 04:30:00",
"2016-02-10 04:20:00","2016-02-10","04:20:00","275","293","310","5.61","8.17","10.32","2016-02-10 04:20:00",
"2016-02-10 04:10:00","2016-02-10","04:10:00","278","292","313","6.19","8.81","11.48","2016-02-10 04:10:00",
"2016-02-10 04:00:00","2016-02-10","04:00:00","279","295","319","5.63","8.71","11.84","2016-02-10 04:00:00",
"2016-02-10 03:50:00","2016-02-10","03:50:00","275","295","311","5.13","8.25","11.4","2016-02-10 03:50:00",
"2016-02-10 03:40:00","2016-02-10","03:40:00","280","295","310","5.7","8.13","10.87","2016-02-10 03:40:00",
"2016-02-10 03:30:00","2016-02-10","03:30:00","281","295","312","5.78","8.13","10.23","2016-02-10 03:30:00",
"2016-02-10 03:20:00","2016-02-10","03:20:00","279","293","314","5.56","8.62","11.01","2016-02-10 03:20:00",
"2016-02-10 03:10:00","2016-02-10","03:10:00","273","296","320","5.54","8.14","11.93","2016-02-10 03:10:00",
"2016-02-10 03:00:00","2016-02-10","03:00:00","280","296","310","6.02","8.73","11.81","2016-02-10 03:00:00",
"2016-02-10 02:50:00","2016-02-10","02:50:00","277","294","315","5.92","8.93","12.44","2016-02-10 02:50:00",
"2016-02-10 02:40:00","2016-02-10","02:40:00","274","298","317","5.28","8.47","11.73","2016-02-10 02:40:00",
"2016-02-10 02:30:00","2016-02-10","02:30:00","270","296","313","5.92","8.56","11.64","2016-02-10 02:30:00",
"2016-02-10 02:20:00","2016-02-10","02:20:00","268","301","327","5.1","8.67","11.89","2016-02-10 02:20:00",
"2016-02-10 02:10:00","2016-02-10","02:10:00","276","297","320","5.11","9.32","12.75","2016-02-10 02:10:00",
"2016-02-10 02:00:00","2016-02-10","02:00:00","274","301","323","5.6","9.26","14.06","2016-02-10 02:00:00",
"2016-02-10 01:50:00","2016-02-10","01:50:00","280","303","325","4.36","9.21","12.32","2016-02-10 01:50:00",
"2016-02-10 01:40:00","2016-02-10","01:40:00","278","302","324","4.54","9.31","12.31","2016-02-10 01:40:00",
"2016-02-10 01:30:00","2016-02-10","01:30:00","287","303","324","5.94","10.45","14.77","2016-02-10 01:30:00",
"2016-02-10 01:20:00","2016-02-10","01:20:00","281","305","324","6.17","10.57","15.11","2016-02-10 01:20:00",
"2016-02-10 01:10:00","2016-02-10","01:10:00","277","305","326","5.45","10.87","14.53","2016-02-10 01:10:00",
"2016-02-10 01:00:00","2016-02-10","01:00:00","282","309","326","5.5","11.48","17.76","2016-02-10 01:00:00",
"2016-02-10 00:50:00","2016-02-10","00:50:00","283","313","350","5.8","11.13","16.83","2016-02-10 00:50:00",
"2016-02-10 00:40:00","2016-02-10","00:40:00","284","310","333","4.49","10.3","14.56","2016-02-10 00:40:00",
"2016-02-10 00:30:00","2016-02-10","00:30:00","276","313","337","6.53","10.47","15.13","2016-02-10 00:30:00",
"2016-02-10 00:20:00","2016-02-10","00:20:00","278","312","332","6.6","11.14","14.33","2016-02-10 00:20:01",
"2016-02-10 00:10:00","2016-02-10","00:10:00","291","312","337","3.27","9.94","12.99","2016-02-10 00:10:02",
"2016-02-10 00:00:00","2016-02-10","00:00:00","286","311","339","5.13","10.02","14.62","2016-02-10 00:00:01",
"2016-02-09 23:50:00","2016-02-09","23:50:00","287","311","329","1.58","9.98","15.28","2016-02-09 23:50:01",
"2016-02-09 23:40:00","2016-02-09","23:40:00","279","305","329","5.13","9.36","13.9","2016-02-09 23:40:01",
"2016-02-09 23:30:00","2016-02-09","23:30:00","278","307","329","4.85","9.44","14.07","2016-02-09 23:30:01",
"2016-02-09 23:20:00","2016-02-09","23:20:00","279","307","335","1.58","9.29","13.05","2016-02-09 23:20:01",
"2016-02-09 23:10:00","2016-02-09","23:10:00","274","307","328","5.7","9.86","14.47","2016-02-09 23:10:01",
"2016-02-09 23:00:00","2016-02-09","23:00:00","283","309","347","1.58","8.4","12.42","2016-02-09 23:00:02",
"2016-02-09 22:50:00","2016-02-09","22:50:00","276","309","340","5.36","9.09","13.99","2016-02-09 22:50:01",
"2016-02-09 22:40:00","2016-02-09","22:40:00","281","308","328","5.43","10.69","16.03","2016-02-09 22:40:02",
"2016-02-09 22:30:00","2016-02-09","22:30:00","281","307","326","5.46","12.13","17.53","2016-02-09 22:30:01",
"2016-02-09 22:20:00","2016-02-09","22:20:00","278","306","327","5.82","10.49","14.55","2016-02-09 22:20:01",
"2016-02-09 22:10:00","2016-02-09","22:10:00","281","307","338","6.23","10.38","13.54","2016-02-09 22:10:01",
"2016-02-09 22:00:00","2016-02-09","22:00:00","280","312","338","4.41","10.05","13.87","2016-02-09 22:00:01",
"2016-02-09 21:50:00","2016-02-09","21:50:00","283","313","340","5","8.78","12.5","2016-02-09 21:50:01",
"2016-02-09 21:40:00","2016-02-09","21:40:00","285","310","340","5.66","9.05","12.75","2016-02-09 21:40:01",
"2016-02-09 21:30:00","2016-02-09","21:30:00","267","310","331","5.31","8.98","12.25","2016-02-09 21:30:01",
"2016-02-09 21:20:00","2016-02-09","21:20:00","280","310","332","5.92","10.19","14.19","2016-02-09 21:20:01",
"2016-02-09 21:10:00","2016-02-09","21:10:00","282","309","331","1.58","9.41","13.57","2016-02-09 21:19:18",
"2016-02-09 21:10:00","2016-02-09","21:10:00","282","309","331","1.58","9.41","13.57","2016-02-09 21:18:33",
"2016-02-09 21:10:00","2016-02-09","21:10:00","282","309","331","1.58","9.41","13.57","2016-02-09 21:17:11",
"2016-02-09 21:00:00","2016-02-09","21:00:00","280","311","335","1.57","8.48","12.59","2016-02-09 21:00:00",
"2016-02-09 20:50:00","2016-02-09","20:50:00","271","305","324","5.18","8.44","11.83","2016-02-09 20:50:01",
"2016-02-09 20:40:00","2016-02-09","20:40:00","282","304","324","4.44","7.99","10.74","2016-02-09 20:40:01",
"2016-02-09 20:30:00","2016-02-09","20:30:00","277","303","324","5.96","8.91","14.02","2016-02-09 20:30:01",
"2016-02-09 20:20:00","2016-02-09","20:20:00","287","309","329","6.02","10.31","14.11","2016-02-09 20:20:01",
"2016-02-09 20:10:00","2016-02-09","20:10:00","284","303","321","6.79","9.84","16.64","2016-02-09 20:10:00",
"2016-02-09 20:00:00","2016-02-09","20:00:00","285","306","328","1.57","9.16","12.96","2016-02-09 20:00:01",
"2016-02-09 19:50:00","2016-02-09","19:50:00","281","304","326","5.39","9","12.22","2016-02-09 19:50:00",
"2016-02-09 19:40:00","2016-02-09","19:40:00","283","302","324","5.72","8.29","11.87","2016-02-09 19:40:00",
"2016-02-09 19:30:00","2016-02-09","19:30:00","279","303","323","5.62","8.5","12.31","2016-02-09 19:30:00",
"2016-02-09 19:20:00","2016-02-09","19:20:00","285","303","322","5.94","9.04","12.23","2016-02-09 19:20:00",
"2016-02-09 19:10:00","2016-02-09","19:10:00","281","299","320","5.38","8.27","11.64","2016-02-09 19:10:00",
"2016-02-09 19:00:00","2016-02-09","19:00:00","284","298","314","5.61","8.46","11.42","2016-02-09 19:00:00",
"2016-02-09 18:50:00","2016-02-09","18:50:00","285","303","326","5.97","9.42","12.65","2016-02-09 18:50:00",
"2016-02-09 18:40:00","2016-02-09","18:40:00","279","303","323","4.37","8.75","12.71","2016-02-09 18:40:01",
"2016-02-09 18:30:00","2016-02-09","18:30:00","283","303","326","5.83","8.13","11.34","2016-02-09 18:30:00",
"2016-02-09 18:20:00","2016-02-09","18:20:00","287","303","321","7.09","10.07","14.11","2016-02-09 18:20:00",
"2016-02-09 18:10:00","2016-02-09","18:10:00","282","308","329","5.95","10.66","16.97","2016-02-09 18:10:00",
"2016-02-09 18:00:00","2016-02-09","18:00:00","286","308","328","5.17","8.36","10.82","2016-02-09 18:00:01",
"2016-02-09 17:50:00","2016-02-09","17:50:00","278","299","316","6.2","8.09","10.52","2016-02-09 17:50:00",
"2016-02-09 17:40:00","2016-02-09","17:40:00","281","303","320","6","8.17","10.85","2016-02-09 17:40:00",
"2016-02-09 17:30:00","2016-02-09","17:30:00","284","296","312","5.98","8.85","11.53","2016-02-09 17:30:01",
"2016-02-09 17:20:00","2016-02-09","17:20:00","276","297","313","5.57","8.37","10.7","2016-02-09 17:20:00",
"2016-02-09 17:10:00","2016-02-09","17:10:00","276","303","329","5.14","7.3","10.06","2016-02-09 17:10:00",
"2016-02-09 17:00:00","2016-02-09","17:00:00","279","309","328","1.57","8.52","11.09","2016-02-09 17:00:01",
"2016-02-09 16:50:00","2016-02-09","16:50:00","287","312","346","5.74","8.41","11.79","2016-02-09 16:50:00",
"2016-02-09 16:40:00","2016-02-09","16:40:00","284","311","343","6.15","10.5","15.08","2016-02-09 16:40:00",
"2016-02-09 16:30:00","2016-02-09","16:30:00","275","304","333","7.37","13.67","19.76","2016-02-09 16:30:00",
"2016-02-09 16:20:00","2016-02-09","16:20:00","279","301","321","5.79","8.36","12.18","2016-02-09 16:20:00",
"2016-02-09 16:10:00","2016-02-09","16:10:00","287","304","320","5.66","8.54","10.94","2016-02-09 16:10:00",
"2016-02-09 16:00:00","2016-02-09","16:00:00","281","305","327","6.81","10.05","13.6","2016-02-09 16:00:00",
"2016-02-09 15:50:00","2016-02-09","15:50:00","276","300","315","5.12","9.71","13.06","2016-02-09 15:50:00",
"2016-02-09 15:40:00","2016-02-09","15:40:00","279","301","321","4.62","9.67","13.44","2016-02-09 15:40:00",
"2016-02-09 15:30:00","2016-02-09","15:30:00","285","304","323","6.76","10.87","14.26","2016-02-09 15:30:00",
"2016-02-09 15:20:00","2016-02-09","15:20:00","285","306","335","5.74","10.16","17.12","2016-02-09 15:20:00",
"2016-02-09 15:10:00","2016-02-09","15:10:00","266","314","344","5.26","9.05","13.27","2016-02-09 15:10:00",
"2016-02-09 15:00:00","2016-02-09","15:00:00","276","315","337","4.41","8.47","13.63","2016-02-09 15:00:00",
"2016-02-09 14:50:00","2016-02-09","14:50:00","288","319","346","3.7","5.33","6.94","2016-02-09 14:50:00",
"2016-02-09 14:40:00","2016-02-09","14:40:00","290","330","18","2.21","5.01","7.57","2016-02-09 14:40:00",
"2016-02-09 14:30:00","2016-02-09","14:30:00","296","327","0","4.57","8.3","13.18","2016-02-09 14:30:00",
"2016-02-09 14:20:00","2016-02-09","14:20:00","280","307","342","4.8","9.39","17.11","2016-02-09 14:20:00",
"2016-02-09 14:10:00","2016-02-09","14:10:00","279","301","326","3.02","5.41","7.8","2016-02-09 14:10:00",
"2016-02-09 14:00:00","2016-02-09","14:00:00","285","309","328","2.54","5.18","6.92","2016-02-09 14:00:00",
"2016-02-09 13:50:00","2016-02-09","13:50:00","266","309","336","2.73","5.71","7.45","2016-02-09 13:50:00",
"2016-02-09 13:40:00","2016-02-09","13:40:00","268","305","340","0.79","5.14","7.55","2016-02-09 13:40:00",
"2016-02-09 13:30:00","2016-02-09","13:30:00","286","311","328","3.39","5.17","6.8","2016-02-09 13:30:00",
"2016-02-09 13:20:00","2016-02-09","13:20:00","270","309","332","0.79","5.52","8.02","2016-02-09 13:20:00",
"2016-02-09 13:10:00","2016-02-09","13:10:00","284","312","344","3.4","6.11","9.27","2016-02-09 13:10:01",
"2016-02-09 13:00:00","2016-02-09","13:00:00","276","308","332","4.35","8.05","11.44","2016-02-09 13:00:00",
"2016-02-09 12:50:00","2016-02-09","12:50:00","273","298","323","4.21","7.17","10.15","2016-02-09 12:50:00",
"2016-02-09 12:40:00","2016-02-09","12:40:00","289","310","349","3.59","8.96","13.51","2016-02-09 12:40:00",
"2016-02-09 12:30:00","2016-02-09","12:30:00","281","321","353","3.35","6.65","9.46","2016-02-09 12:30:00",
"2016-02-09 12:20:00","2016-02-09","12:20:00","285","319","351","2.49","6.17","8.53","2016-02-09 12:20:00",
"2016-02-09 12:10:00","2016-02-09","12:10:00","300","327","358","1.85","5.88","9.31","2016-02-09 12:10:00",
"2016-02-09 12:00:00","2016-02-09","12:00:00","286","313","346","4.88","8.85","14.34","2016-02-09 12:00:00",
"2016-02-09 11:50:00","2016-02-09","11:50:00","277","316","338","6.55","11.86","17.7","2016-02-09 11:50:00",